Home > Time Zones > World Clock > Weather > Peru > Cuzco > Past weeks

Flag for Peru Weather past 2 weeks in Cuzco, Cusco, Peru

Now
57 °F

Scattered clouds.


Feels Like: 54 °F
Forecast: N/A
Wind: 13 mph from North

Location: Cuzco Airport

Current Time: Feb 1, 2015 at 6:32:28 PM

Latest Report: Feb 1, 2015 at 6:00 PM


Visibility: N/A

Pressure: 30.42 "Hg

Humidity: 48%

Dew point: 37 °F

Location of CuzcoLocation

Historic Weather in Cuzco — Graph

°F

Cuzco temperature yesterday

Maximum temperature yesterday: 66 °F (at 3:00 PM)
Minimum temperature yesterday: 48 °F (at 2:00 AM)
Average temperature yesterday: 56 °F

Past Weeks' High & Low Weather Summary

 TemperatureHumidityPressure
High72 °F (Jan 25, 3:00 PM)88% (Jan 20, 7:00 PM)30.57 "Hg (Jan 20, 7:00 PM)
Low45 °F (Jan 18, 5:00 AM)31% (Jan 25, 3:00 PM)30.24 "Hg (Jan 25, 3:00 PM)
Average54 °F65%30.44 "Hg
* Reported Jan 17 5:00 PM — Feb 1 5:00 PM, Cuzco, Weather by CustomWeather, © 2014

Note: Actual official high and low records may vary slightly from our data, if they occured in-between our weather recording intervals... More about our weather records

Advertising

Cuzco weather history for previous 24 hours

 ConditionsComfort  
Time TempWeatherWind HumidityBarometerVisibility
5:00 PM
Feb 1
61 °FScattered clouds.12 mph45%30.42 "HgN/A
4:00 PM63 °FScattered clouds.9 mph39%30.39 "HgN/A
3:00 PM66 °FScattered clouds.10 mph37%30.42 "HgN/A
2:00 PM63 °FScattered clouds.6 mph42%30.42 "HgN/A
1:00 PM64 °FScattered clouds.10 mph46%30.48 "HgN/A
12:00 PM63 °FScattered clouds.8 mph42%30.48 "HgN/A
11:00 AM59 °FBroken clouds.2 mph51%30.54 "HgN/A
10:00 AM55 °FScattered showers. Broken clouds.5 mph59%30.54 "HgN/A
8:00 AM52 °FBroken clouds.2 mph72%30.57 "HgN/A
7:00 AM48 °FBroken clouds.1 mph82%30.54 "HgN/A
6:00 AM46 °FBroken clouds.2 mph87%30.51 "HgN/A
5:00 AM48 °FPartly cloudy.3 mph82%30.48 "HgN/A
4:00 AM48 °FPartly cloudy.No wind82%30.48 "HgN/A
3:00 AM50 °FPartly cloudy.No wind71%30.48 "HgN/A
2:00 AM52 °FPartly cloudy.No wind72%30.48 "HgN/A
1:00 AM50 °FPartly cloudy.No wind82%30.51 "HgN/A
12:00 AM52 °FPartly cloudy.No wind72%30.51 "HgN/A
11:00 PM
Jan 31
54 °FLight rain. Partly cloudy.No wind63%30.54 "HgN/A
10:00 PM54 °FPartly cloudy.No wind58%30.51 "HgN/A
9:00 PM54 °FPartly cloudy.2 mph58%30.48 "HgN/A
8:00 PM55 °FPartly cloudy.2 mph51%30.45 "HgN/A
6:00 PM59 °FScattered clouds.9 mph42%30.39 "HgN/A
Weather by CustomWeather, © 2014

See weather overviewHow to use our weather pages